Location: Red Rock Canyon
(36.1333°N, 115.4333°W)
Time: 18:49:39
(UTC-07:00)

ISS - Visible Passes

Search period start: 25 October 2014 00:00
Search period end: 03 November 2014 23:00
Orbit: 412 x 416 km, 51.6° (Epoch: 25 October)

Date Brightness Start Highest point End Pass type
(mag) Time Alt. Az. Time Alt. Az. Time Alt. Az.
25 Oct -3.0 18:58:43 10° NW 19:01:58 48° NE 19:03:09 31° E visible
26 Oct -1.3 19:46:28 10° WNW 19:49:18 26° SW 19:49:32 26° SW visible
27 Oct -2.5 18:56:55 10° WNW 19:00:10 51° SW 19:03:16 11° SSE visible
29 Oct -0.3 18:55:51 10° W 18:58:01 16° SW 19:00:11 10° S visible
